Location: Berkeley
(37.8716°N, 122.2727°W)
Time: 22:28:51
(UTC-08:00)

Tiangong 2 - Visible Passes

Search period start: 18 February 2019 00:00
Search period end: 28 February 2019 00:00
Orbit: 381 x 390 km, 42.8° (Epoch: 18 February)

Date Brightness Start Highest point End Pass type
(mag) Time Alt. Az. Time Alt. Az. Time Alt. Az.
18 Feb 1.6 18:15:39 10° WNW 18:18:44 45° NNE 18:21:47 10° E visible
18 Feb 3.2 19:52:30 10° W 19:54:17 27° W 19:54:17 27° W visible
19 Feb 1.2 18:53:09 10° WNW 18:56:19 73° SSW 18:58:11 22° ESE visible
20 Feb 3.2 19:31:07 10° W 19:33:36 21° SW 19:34:28 19° S visible
21 Feb 2.4 18:31:31 10° W 18:34:30 38° SSW 18:37:27 10° SE visible
22 Feb 4.1 19:10:33 10° WSW 19:11:37 11° SW 19:12:42 10° SSW visible
